Temp
16 16 17 17 17 17 16 15 15 16 17 17 18 18 18 18 18 18 18 18 18 17 18 18 18 18 18 18 18 18 18 18 18 18 18 18 17 17 17 17 17 17
16 16 17 17 17 17 16 16 15 16 17 18 18 18 18 18 18 18 18 18 18 18 18 18 18 18 18 18 18 18 18 18 18 17 17 17 17 17 17 17 17 17
16 16 16 17 17 16 16 16 16 16 17 18 18 18 18 18 18 18 18 18 18 18 18 18 18 18 18 18 18 18 18 18 17 17 17 17 17 17 17 17 17 17
16 16 16 17 17 17 16 16 16 17 17 18 18 18 18 18 17 17 18 18 18 18 18 18 18 18 18 18 18 17 17 17 17 17 17 17 17 17 17 17 17 17
16 16 17 17 17 17 16 16 17 17 18 18 18 18 18 18 17 17 18 18 18 18 18 18 18 18 18 18 18 18 17 17 17 17 17 17 17 17 17 17 17 17
16 16 17 17 17 17 16 16 17 18 18 18 18 18 18 18 18 18 18 18 18 18 18 18 18 18 18 18 17 17 17 17 17 17 17 17 17 17 17 17 17 17
16 16 17 17 17 16 16 16 17 18 18 18 18 18 17 18 18 18 18 18 18 18 18 18 18 18 18 17 17 17 17 17 17 17 17 17 17 17 17 17 17 17
16 17 17 18 17 16 17 17 16 17 18 18 17 17 16 17 18 18 18 18 18 18 18 18 18 18 18 17 17 17 17 17 17 17 17 17 17 17 17 17 16 16
16 16 17 17 17 16 17 17 16 17 18 17 17 16 16 17 18 18 18 18 18 18 18 18 18 18 18 18 18 18 17 17 17 17 17 17 17 17 17 17 17 16
16 16 16 16 16 16 17 17 16 16 17 16 15 16 17 18 18 18 18 18 18 18 18 18 18 18 18 18 18 18 18 18 17 17 17 17 17 17 17 17 17 17
15 15 15 15 15 15 16 16 16 15 16 16 16 16 18 18 18 18 18 18 18 18 18 18 18 18 18 18 18 18 18 18 18 18 18 18 18 18 18 18 17 17
15 15 14 14 14 15 15 15 16 15 16 17 16 17 18 18 18 18 18 18 18 18 18 18 18 18 18 18 18 18 18 18 18 18 18 18 18 18 18 18 18 17
14 14 14 14 14 15 15 15 15 16 17 17 16 17 18 18 18 18 18 18 18 18 18 18 18 18 18 18 18 18 18 18 19 18 18 18 18 18 18 18 18 18
14 14 14 13 14 14 15 15 15 16 17 16 16 18 18 18 18 18 18 18 18 18 18 18 18 18 18 18 18 18 18 18 18 18 18 19 19 19 18 18 18 18
14 13 13 13 14 14 14 14 15 16 15 15 17 18 18 18 18 18 18 18 17 18 18 18 18 18 18 18 18 18 18 18 18 18 19 19 19 18 18 18 18 17
14 13 13 13 14 14 14 14 14 14 14 15 17 18 18 18 18 18 18 17 17 17 18 18 18 18 18 18 18 18 18 18 18 18 18 18 18 18 18 18 17 17
13 13 13 13 13 13 13 14 14 14 14 15 17 17 17 17 17 17 17 17 17 17 17 17 17 17 17 18 18 18 18 18 18 18 18 18 18 18 18 18 17 16
13 13 13 13 13 13 13 14 14 13 14 16 17 17 17 17 17 17 17 17 17 17 17 17 17 17 17 17 17 18 18 18 18 18 18 18 18 18 18 18 17 16
13 13 13 13 13 13 14 14 13 13 14 16 16 16 17 17 17 16 16 16 17 17 17 16 16 17 17 17 17 17 17 17 18 18 18 18 18 17 17 17 16 16
13 13 13 13 13 13 14 14 13 13 14 15 15 16 16 16 16 16 16 16 16 16 16 16 16 16 16 17 17 17 17 17 17 17 18 18 17 16 16 16 16 15
12 12 12 13 12 13 14 13 13 13 14 14 15 15 15 15 15 15 15 15 15 15 15 15 15 15 16 16 16 16 16 16 17 17 17 17 16 15 16 15 15 15
10 11 12 12 12 13 13 13 12 14 14 14 14 14 14 14 14 14 15 14 14 14 15 14 14 14 15 16 16 16 16 16 16 16 16 15 15 14 15 14 14 14
9 10 10 11 11 12 12 12 12 13 13 13 13 13 13 13 13 13 13 13 14 14 14 14 13 14 15 15 15 16 16 16 16 15 15 14 13 13 13 13 13 14
8 8 9 10 10 10 10 11 12 11 11 12 13 12 12 12 12 12 13 13 13 13 13 14 13 13 14 14 15 15 15 15 15 14 13 13 12 12 12 12 12 12
8 8 8 9 9 9 9 10 11 10 10 11 12 12 12 12 12 12 12 12 12 12 13 13 13 13 13 14 14 14 15 15 14 14 13 12 11 11 11 12 12 12
8 8 8 8 8 8 8 9 10 9 9 10 11 11 11 11 11 11 11 10 11 11 11 12 12 12 13 13 13 14 14 14 14 13 12 11 11 11 11 11 11 12
Height
783 786 789 791 793 794 795 796 796 797 798 799 799 800 801 802 803 804 805 807 809 811 813 815 817 817 818 819 820 821 823 824 826 828 829 830 831 831 832 833 834 835
783 785 788 790 792 793 794 795 796 797 797 798 799 799 800 801 802 803 804 806 808 810 813 815 816 817 817 818 819 820 822 824 825 827 828 829 830 831 831 832 833 834
783 784 787 789 791 792 793 794 795 796 796 797 798 798 798 800 801 802 804 805 807 810 812 814 815 816 817 818 819 820 822 823 824 826 827 828 829 830 831 832 832 833
784 785 785 787 789 791 792 793 793 794 795 796 796 797 797 800 803 804 804 806 807 810 812 813 815 816 817 818 819 820 822 823 824 825 827 828 829 830 830 831 832 833
784 785 785 786 788 789 791 792 792 792 794 794 795 796 797 799 802 804 805 806 807 809 811 813 814 816 817 818 819 820 822 823 824 825 826 827 828 830 830 831 832 833
782 784 784 784 785 787 789 791 792 792 792 792 793 794 795 797 800 802 804 806 808 809 811 812 814 815 816 818 819 820 821 822 823 824 825 826 828 829 830 830 831 832
780 781 780 781 782 783 785 788 790 790 790 791 791 792 794 795 798 801 803 806 808 809 810 812 814 815 816 817 818 819 820 821 822 823 824 826 827 828 829 830 831 832
776 777 777 778 779 780 782 784 787 788 788 789 788 790 794 795 797 800 803 806 807 809 811 812 814 815 816 817 818 819 820 820 821 822 824 825 826 827 828 829 830 831
774 774 775 776 776 778 781 783 786 787 787 786 786 790 794 795 797 801 804 806 808 809 811 812 814 815 816 817 818 819 819 820 821 822 823 824 825 826 828 829 829 830
772 772 773 774 775 776 778 781 784 786 786 787 789 790 792 794 798 801 804 806 808 810 811 813 814 815 816 817 818 819 819 820 821 821 822 823 824 826 827 828 829 829
772 771 771 773 774 776 778 780 783 784 786 789 792 792 791 794 798 801 804 807 808 810 812 813 814 815 816 817 817 818 819 819 820 821 822 823 824 825 826 827 828 828
772 771 770 771 773 775 777 779 781 784 787 789 792 793 792 795 798 802 805 807 809 810 812 813 814 815 816 817 817 818 818 819 820 821 822 823 824 825 826 826 827 827
771 770 770 771 772 774 777 779 781 784 786 789 792 793 793 795 798 802 805 807 809 810 811 813 814 815 816 817 817 817 818 819 820 821 821 822 823 824 825 826 826 827
769 769 769 771 772 773 777 780 783 784 786 790 793 792 792 795 798 802 805 807 809 810 812 813 814 815 816 817 817 818 818 819 820 821 821 822 823 823 824 825 826 826
768 768 769 772 773 774 777 781 782 784 787 791 791 790 792 795 799 803 805 808 809 811 812 813 814 815 816 817 818 818 819 819 820 820 821 821 822 823 824 825 825 826
769 769 771 774 774 774 778 780 780 784 789 790 789 789 791 796 800 804 806 808 810 811 812 813 814 815 816 817 818 818 819 820 820 821 821 821 822 823 824 825 825 826
770 770 772 775 774 774 778 778 780 785 790 788 786 787 791 796 800 804 806 809 810 811 812 813 814 815 816 817 818 818 819 819 820 821 821 821 822 823 824 825 825 826
769 771 773 775 775 776 777 777 781 788 789 785 783 786 791 796 800 804 807 809 810 811 812 813 814 815 816 817 818 818 819 819 820 820 821 821 822 823 824 824 825 826
770 772 774 776 776 778 777 778 784 788 786 782 782 786 792 796 800 804 807 809 810 811 812 813 814 815 816 817 817 818 818 819 819 820 820 821 822 823 823 824 825 826
772 772 774 776 777 777 777 780 785 787 784 783 784 788 793 796 800 804 807 808 809 810 812 813 814 815 815 816 817 818 818 818 819 820 820 820 821 822 823 824 825 826
773 773 774 777 778 777 777 782 786 785 784 786 788 791 794 797 801 804 806 808 810 810 812 813 814 815 815 816 817 818 818 819 819 819 820 820 821 822 823 825 826 826
776 775 775 777 779 779 780 784 786 785 785 789 791 793 796 798 801 804 806 808 810 811 812 813 814 815 815 816 817 817 818 819 819 819 820 821 822 823 824 825 826 827
779 778 778 780 781 781 783 785 786 786 789 791 793 794 796 799 802 804 806 808 810 811 812 813 815 816 816 816 817 817 818 818 819 820 821 822 823 825 825 826 827 827
783 782 782 783 783 784 786 786 787 791 793 793 793 795 797 801 803 805 807 809 810 812 813 814 815 817 817 817 817 817 818 818 819 820 821 823 824 826 827 827 827 828
789 788 787 787 788 789 789 788 790 795 796 795 795 797 799 803 804 805 807 810 811 813 814 814 816 818 818 818 818 818 818 818 819 820 822 824 825 826 827 828 828 829
794 794 792 792 793 793 793 793 795 799 800 798 798 800 802 804 806 806 808 811 812 814 815 817 817 818 818 819 819 819 820 820 820 820 822 825 826 827 828 829 829 829
Wind_Speed
12 11 11 12 15 17 19 20 22 25 27 28 27 26 25 24 23 22 22 20 20 21 21 20 20 20 20 20 20 19 20 21 21 20 19 17 17 19 19 19 20 18
11 10 10 11 14 18 20 21 23 26 27 27 26 25 24 24 24 24 23 21 21 21 20 19 20 20 20 20 20 20 21 22 21 20 19 17 17 18 19 18 19 18
9 10 11 10 14 19 21 22 24 26 26 25 25 24 24 24 25 25 24 23 23 22 20 19 20 21 20 19 19 20 20 21 20 18 18 17 16 18 18 17 18 19
8 8 10 9 12 19 21 23 25 26 25 25 24 25 25 25 24 24 25 25 24 23 22 20 20 20 19 19 19 19 18 18 17 17 16 16 16 17 17 17 18 19
10 7 8 9 12 18 22 24 26 26 26 24 24 26 27 26 25 26 26 25 24 23 22 20 19 19 20 19 19 19 17 16 15 15 14 15 16 16 17 16 17 18
12 11 11 12 15 20 22 24 26 26 26 25 26 29 29 27 27 27 26 25 24 23 21 21 20 20 20 19 19 18 17 16 15 14 13 14 16 16 16 16 16 17
14 16 16 16 20 23 23 24 26 27 27 27 30 31 29 29 28 27 26 25 24 22 21 21 21 20 19 19 19 18 17 16 15 14 13 14 16 15 16 17 16 17
19 19 19 19 22 25 24 25 28 28 29 30 31 30 28 29 29 27 26 25 24 23 21 21 20 19 19 19 20 18 17 17 17 16 14 15 16 15 16 16 16 17
21 21 21 22 24 26 25 26 28 29 30 31 30 30 28 28 28 28 26 25 24 23 21 20 19 19 19 18 19 18 17 17 18 17 16 15 16 16 15 15 16 17
18 21 23 25 26 26 27 28 28 28 27 26 27 29 29 27 27 26 26 25 25 23 21 20 19 18 18 17 17 16 16 16 17 17 16 16 17 16 15 15 15 16
19 21 22 24 25 25 26 27 26 25 25 25 26 28 29 28 27 26 26 26 25 22 20 20 19 17 16 16 16 16 15 15 16 16 15 15 17 16 14 14 14 14
20 22 22 24 23 23 24 24 24 25 28 29 27 26 28 28 27 26 26 27 25 22 21 20 18 17 17 16 15 14 13 13 14 15 15 15 16 15 14 13 12 12
21 24 24 22 20 21 24 24 26 29 32 29 26 27 28 27 27 27 27 27 25 23 21 19 18 19 18 15 13 13 13 14 14 15 15 15 14 14 14 12 10 10
23 25 23 20 21 22 24 26 29 31 30 27 25 27 27 25 26 27 28 26 24 22 21 19 19 19 17 15 13 13 13 14 14 15 15 14 13 13 13 11 8 9
21 21 19 20 23 25 25 28 30 28 25 26 27 27 26 24 25 26 26 25 23 22 20 19 19 18 16 15 14 14 14 14 13 14 15 16 15 15 12 8 7 8
20 16 17 20 24 27 25 25 26 24 23 27 30 29 26 25 25 25 24 24 24 23 21 20 19 18 16 15 14 13 13 13 12 13 16 17 16 14 12 8 7 8
20 18 19 20 22 25 23 23 25 25 26 32 32 30 29 28 27 27 26 25 24 23 22 20 19 18 16 14 14 13 12 11 11 12 14 17 15 14 13 10 9 9
22 20 21 22 23 24 24 27 28 27 30 35 35 33 33 31 29 28 27 25 24 22 20 19 18 17 15 14 13 12 11 10 10 10 12 14 14 14 14 12 12 12
23 22 21 23 25 26 27 29 27 26 32 36 37 36 34 32 30 27 25 23 21 19 18 17 16 15 14 13 12 12 11 11 10 10 11 13 14 15 16 15 13 13
21 24 23 23 24 27 29 28 25 27 33 36 36 35 33 31 29 26 23 21 18 17 16 15 14 13 12 13 13 12 12 13 13 12 13 14 16 16 16 14 13 13
17 22 25 24 24 28 31 29 26 30 32 33 33 32 31 30 28 25 23 21 19 18 17 15 13 12 11 12 12 11 12 15 17 17 16 17 17 17 16 15 14 13
17 20 24 24 25 29 32 29 28 31 32 31 32 32 30 29 27 25 23 22 20 19 19 18 16 13 11 12 13 13 14 17 20 20 20 21 20 19 19 17 15 14
19 20 22 23 24 28 30 29 30 31 31 32 32 32 30 28 26 25 23 22 21 19 19 20 19 16 13 14 16 18 18 20 22 23 24 24 23 22 21 19 17 14
23 21 22 22 23 24 26 29 29 28 27 30 32 31 30 28 27 26 24 22 22 21 20 20 19 18 16 16 18 20 21 22 23 24 25 25 23 22 20 19 18 15
25 24 22 22 22 21 23 27 28 25 25 30 31 31 31 29 28 28 27 25 23 22 20 20 20 18 17 18 18 19 20 22 23 24 25 23 22 20 19 17 16 15
26 26 24 23 21 20 21 25 27 25 27 30 32 32 32 31 30 30 29 27 24 23 21 21 20 19 18 18 18 17 18 19 21 22 23 22 20 19 17 16 15 14
Wind_Direction
209 208 208 208 209 215 218 212 204 200 200 201 202 205 207 206 204 197 191 189 191 189 189 197 200 195 194 197 197 195 197 201 201 200 200 201 201 201 200 201 201 199
202 200 206 213 218 223 223 216 209 205 203 202 205 207 207 205 198 189 184 182 183 184 185 191 192 189 189 190 190 192 196 199 200 200 202 203 201 201 204 205 204 200
195 194 201 212 221 226 225 218 212 208 206 205 207 207 202 196 190 185 182 180 179 180 182 184 185 186 187 186 186 191 195 198 200 201 202 203 202 201 203 205 203 198
192 187 197 212 226 228 227 220 211 207 206 206 207 202 192 186 185 184 180 178 178 179 179 181 184 187 188 186 187 189 193 197 198 198 200 201 203 200 199 202 200 199
201 200 206 218 230 228 224 220 212 206 206 206 202 194 184 179 181 182 179 178 179 179 179 182 184 186 186 185 186 188 191 194 196 197 198 198 200 200 198 200 201 202
204 207 212 219 225 221 218 218 214 207 205 202 194 187 181 177 178 179 178 179 178 178 179 180 182 182 183 184 184 185 189 193 194 196 199 198 198 199 201 204 206 207
201 201 207 215 220 217 215 216 215 209 203 195 189 186 181 177 176 176 176 175 174 173 173 173 176 177 180 185 183 183 187 189 189 190 195 197 194 196 203 208 211 211
203 202 206 215 221 217 211 212 212 206 198 193 189 186 181 176 174 173 172 172 170 169 170 171 173 174 178 182 183 184 186 187 187 189 193 196 196 200 205 210 214 213
209 206 206 215 221 214 206 207 212 207 199 196 189 180 176 172 170 170 172 172 170 170 171 170 171 174 176 178 180 181 183 186 191 193 195 197 200 204 206 211 215 213
220 219 213 215 215 207 203 207 210 206 198 192 183 175 171 167 166 170 173 171 169 168 169 168 170 174 176 177 178 179 180 183 188 191 194 199 202 205 206 209 211 212
227 227 215 210 208 203 204 205 202 196 184 177 177 174 167 162 164 169 171 170 167 165 165 167 169 171 173 175 176 177 181 185 186 186 189 195 199 200 203 206 211 214
226 223 206 198 195 192 194 191 185 180 172 170 175 172 164 163 168 169 167 167 166 165 166 168 169 174 177 175 175 180 183 184 185 187 189 193 195 198 202 208 214 216
221 219 206 187 174 178 183 178 173 171 169 171 176 170 161 161 168 170 169 169 169 168 169 169 169 174 174 168 170 181 182 176 174 177 182 188 192 195 200 204 210 213
214 214 204 177 162 168 173 169 167 166 168 175 174 162 153 152 158 164 166 166 166 166 166 166 165 166 166 158 153 160 167 170 171 173 175 174 173 177 184 192 202 208
212 207 189 167 158 160 163 165 165 162 166 172 163 150 145 145 147 152 155 155 155 154 156 158 159 159 159 155 150 148 149 151 157 165 165 159 157 163 170 178 190 199
209 191 169 167 159 154 160 166 165 163 162 159 151 142 140 141 142 145 148 148 146 145 145 147 148 148 149 149 151 154 152 145 141 149 157 155 153 160 167 171 178 190
191 169 156 163 156 148 152 155 157 158 153 146 143 138 137 139 141 142 143 143 143 142 140 139 138 139 140 142 146 152 158 155 143 141 154 160 160 160 162 164 172 180
172 161 149 149 147 143 141 140 145 149 144 139 136 135 136 138 139 139 139 139 141 140 138 136 135 136 136 137 140 144 150 155 149 139 142 154 166 167 162 162 169 171
162 160 153 146 142 139 135 135 139 140 137 134 132 134 137 137 137 138 137 136 138 138 135 135 137 139 139 138 135 134 138 141 143 142 136 142 163 171 166 165 169 167
148 153 154 148 140 136 134 136 136 132 129 129 129 133 136 134 134 135 133 132 134 135 134 133 136 140 144 146 139 132 132 132 132 137 137 140 155 164 161 161 164 163
124 135 141 141 136 133 133 135 134 129 127 127 130 133 133 131 131 131 129 127 127 129 129 123 122 132 145 152 149 140 133 130 128 130 132 136 143 149 150 150 152 151
96 114 124 130 131 131 133 134 131 128 129 130 130 129 127 127 126 125 125 123 122 123 122 113 108 117 135 146 148 143 135 130 128 127 125 126 127 131 134 135 135 134
77 95 109 118 122 125 129 130 128 127 130 133 130 126 124 123 121 120 120 121 120 120 119 113 105 104 117 134 141 141 136 130 127 124 120 118 115 116 120 120 118 117
63 77 93 106 111 115 120 125 126 126 128 132 129 124 121 121 120 118 116 115 115 114 115 114 106 100 107 120 131 138 137 131 127 123 118 115 112 110 111 109 107 105
57 61 73 87 95 102 112 120 125 126 125 127 126 122 118 118 117 114 110 108 109 107 108 111 108 104 106 110 118 128 133 132 131 126 118 113 111 108 104 102 100 97
59 57 60 69 79 89 100 112 120 122 120 119 119 118 117 114 111 109 105 103 103 103 102 104 104 105 107 110 113 118 124 128 130 127 121 115 109 106 102 96 92 88